Location: B�rgermoos
(47.6500°N, 9.0667°E)
Time: 07:47:21
(UTC+00:00)

Cosmos 1092 Rocket - Pass Details

Date: 18 September 2020
Orbit: 954 x 995 km, 82.9° (Epoch: 24 October)

Event Time Altitude Azimuth Distance (km) Brightness Sun altitude
Rises 19:48:53 0° 350° (N) 3,645 7.6 -23.2°
Reaches altitude 10° 19:51:23 10° 349° (N) 2,697 6.8 -23.6°
Maximum altitude 19:57:32 81° 264° (W) 977 4.0 -24.5°
Enters shadow 20:00:16 36° 181° (S) 1,482 4.7 -24.8°
